Regional Weather Roundup
Issued by NWS

Home | Current Version | Previous Version | Graphics & Text | Print | Product List | Glossary On
Versions: 1 2 3 4 5 6 7 8 9 10 11 12 13 14 15 16 17 18 19 20 21 22 23 24 25 26 27 28 29 30 31 32 33 34 35 36 37 38 39 40 41 42 43 44 45 46 47 48 49 50
000
ASUS43 KMKX 291710
RWRWI

WISCONSIN REGIONAL WEATHER ROUNDUP
NATIONAL WEATHER SERVICE MILWAUKEE/SULLIVAN WI
1100 AM CST THU JAN 29 2015

NOTE: "FAIR" INDICATES FEW OR NO CLOUDS BELOW 12,000 FEET WITH NO
SIGNIFICANT WEATHER AND/OR OBSTRUCTIONS TO VISIBILITY.

WIZ001-002-006>008-014>016-023>028-291800-
NORTHWEST WISCONSIN

CITY           SKY/WX    TMP DP  RH WIND       PRES   REMARKS
SUPERIOR ARPT  CLOUDY    27  20  75 N13G20    30.17R WCI  17
ASHLAND        CLOUDY    29  20  69 NW16G22   30.10R WCI  17
HAYWARD        CLOUDY    29  19  66 NW9G21    30.10R WCI  20
SIREN          CLOUDY    29  20  69 NW23      30.16R WCI  16
CUMBERLAND     CLOUDY    30  21  69 NW14      30.11R WCI  20
RICE LAKE      CLOUDY    31  22  70 NW13G24   30.13R WCI  21
CHETEK         CLOUDY    31  24  75 NW8G20    30.10R WCI  23
LADYSMITH      CLOUDY    31  23  72 NW17G26   30.07R WCI  20
EAU CLAIRE     CLOUDY    33  24  69 NW13G23   30.10R WCI  24
MENOMONIE      CLOUDY    33  23  67 NW21G30   30.12R WCI  21
NEW RICHMOND   CLOUDY    31  23  74 NW15G24   30.17R WCI  20
OSCEOLA        CLOUDY    32  24  72 NW15G22   30.21R WCI  21
$$

WIZ003>005-009-010-017-018-291800-
NORTH CENTRAL WISCONSIN

CITY           SKY/WX    TMP DP  RH WIND       PRES   REMARKS
MANITOWISH WTR CLOUDY    26  21  83 NW14G22   29.97R WCI  14
ARBOR VITAE    CLOUDY    29  24  79 N15G24    29.96R WCI  18
WOODRUFF       CLOUDY    29  24  79 N15G24    29.96R WCI  18
RHINELANDER    CLOUDY    28  22  78 NW18G29   29.94R WCI  15
EAGLE RIVER    CLOUDY    28  22  79 NW23G30   29.92R WCI  13
LAND O LAKES   LGT SNOW  27  24  91 NW18G24   29.94R WCI  13
PHILLIPS       CLOUDY    28  22  76 NW10G21   30.00R WCI  19
TOMAHAWK       CLOUDY    29  22  76 NW13G22   29.97R WCI  19
MEDFORD        CLOUDY    29  23  77 NW21G26   30.00R WCI  16
MERRILL        CLOUDY    31  24  74 N16G22    29.96R WCI  20
$$

WIZ029-030-035-036-043>047-291800-
CENTRAL WISCONSIN

CITY           SKY/WX    TMP DP  RH WIND       PRES   REMARKS
WAUSAU         CLOUDY    31  23  72 N16G33    29.95R WCI  20
MOSINEE        CLOUDY    30  25  80 NW15G22   29.98R WCI  19
MARSHFIELD     CLOUDY    32  24  72 NW22G32   30.00R WCI  19
STEVENS POINT  CLOUDY    30  22  72 NW14G24   29.97R WCI  20
WAUPACA        CLOUDY    34  26  71 NW16G22   29.96R WCI  24
WAUTOMA        CLOUDY    33  27  79 NW13      29.97R WCI  24
WISC RAPIDS    CLOUDY    32  23  69 NW18G28   30.00R WCI  20
CAMP DOUGLAS   CLOUDY    32  32 100 NW17G25   30.02R WCI  21
$$

WIZ011>013-019>022-031-037>040-048>050-291800-
NORTHEAST WISCONSIN

CITY           SKY/WX    TMP DP  RH WIND       PRES   REMARKS
ANTIGO         CLOUDY    28  23  82 NW16G26   29.93R WCI  16
SHAWANO        CLOUDY    34  25  69 NW10G21   29.94R WCI  26
OCONTO         CLOUDY    32  25  74 MISG      29.91R
STURGEON BAY   CLOUDY    30  25  80 NW16      29.90R WCI  19
GREEN BAY      CLOUDY    33  26  75 NW18      29.91R WCI  22
MANITOWOC      CLOUDY    32  28  85 NW14G23   29.89R WCI  22
APPLETON       CLOUDY    32  25  74 NW20G28   29.92R WCI  20
CLINTONVILLE   CLOUDY    32  25  74 N10       29.94R WCI  24
OSHKOSH        CLOUDY    33  26  75 NW18G26   29.92R WCI  22
$$

WIZ032>034-041-042-053>061-291800-
SOUTHWEST WISCONSIN

CITY           SKY/WX    TMP DP  RH WIND       PRES   REMARKS
LA CROSSE      CLOUDY    36  26  67 NW16      30.09R WCI  26
SPARTA         CLOUDY    33  26  75 NW18G25   30.07R WCI  22
VIROQUA        CLOUDY    32  28  86 NW23G30   30.03R WCI  19
BOSCOBEL       CLOUDY    36  28  73 NW9G23    30.06R WCI  29
PRAIRIE DU CHI CLOUDY    35  27  73 NW18G24   30.07R WCI  24
PLATTEVILLE    CLOUDY    33  30  88 W16G22    30.02R WCI  23
$$

WIZ056-057-062-063-064-067-068-291800-
SOUTH CENTRAL WISCONSIN

CITY           SKY/WX    TMP DP  RH WIND       PRES   REMARKS
REEDSBURG      CLOUDY    32  28  84 NW15G31   30.00R WCI  22
BARABOO/DELLS  CLOUDY    32  27  83 NW10G23   29.98R WCI  23
LONE ROCK      CLOUDY    34  27  75 NW16G25   30.02R WCI  24
MINERAL POINT  CLOUDY    34  30  86 NW22G28   30.00R WCI  22
MADISON        CLOUDY    33  26  75 NW14G24   29.97R WCI  23
MIDDLETON      CLOUDY    34  28  79 NW14G20   29.98R WCI  24
WATERTOWN      CLOUDY    32  28  83 NW13G23   29.93R WCI  22
MONROE         CLOUDY    32  30  93 NW15G25   29.97R WCI  22
JANESVILLE     CLOUDY    34  27  75 NW16G29   29.95R WCI  23
$$

WIZ051-052-058>065-066-070>072-291800-
SOUTHEAST WISCONSIN

CITY           SKY/WX    TMP DP  RH WIND       PRES   REMARKS
MILWAUKEE      CLOUDY    33  25  72 NW16      29.89R WCI  23
WAUKESHA       CLOUDY    30  25  80 NW12G23   29.91R WCI  21
MILWAUKEE/TIMM CLOUDY    32  25  74 N16G23    29.90R WCI  21
RACINE         CLOUDY    33  24  69 NW20G29   29.90R WCI  21
BURLINGTON     CLOUDY    31  25  77 NW18G28   29.92R WCI  19
KENOSHA        CLOUDY    33  26  75 NW17G26   29.89R HAZE    WCI  22
FOND DU LAC    CLOUDY    32  25  75 NW17G24   29.92R WCI  21
SHEBOYGAN      CLOUDY    32  26  78 NW16G26   29.89R WCI  21
WEST BEND      CLOUDY    32  27  80 NW18G28   29.90R WCI  20
JUNEAU         CLOUDY    31  26  81 NW16G23   29.94R WCI  20
$$

LSZ147-162-291800-
LAKE SUPERIOR

STATION/POSITION TIME  TEMP    WIND        PRES    WAVE
                       AIR SEA DIR/SP/G            HT/PER
                 (UTC) (F)     (DEG/KT/KT) (MB)    (FT/S)
DEVILS ISLAND    1700   26     320/ 24/ 29 1020.3R
PORT WING        1600   29     300/ 19/ 21 1019.6
SAXON HARBOR     1600   29     320/ 19/ 23 1017.9R
$$

LMZ867-665-643>646-291800-
LAKE MICHIGAN

STATION/POSITION TIME  TEMP    WIND        PRES    WAVE
                       AIR SEA DIR/SP/G            HT/PER
                 (UTC) (F)     (DEG/KT/KT) (MB)    (FT/S)
NORTHPORT PIER   1701   31     310/ 17/ 22 1011.5R
SISTER BAY       1613   30     340/ 16/ 19   N/A
KEWAUNEE LAKESHO 1600   31     340/ 12/ 16 1010.6R
SHEBOYGAN LAKESH 1700   32     330/ 19/ 23 1013.2R
PORT WASHINGTON  1640   33     330/  8/ 15 1013.2R
MILWAUKEE LAKESH 1600   32     320/ 10/ 13   N/A
KENOSHA   LAKESH 1700   33     330/ 16/ 26 1012.5R
$$

TC  - TEMPERATURE IN CELSIUS
VSB - VISIBILITY IN STATUTE MILES
WCI - WIND CHILL INDEX
HX  - HEAT INDEX




USA.gov is the U.S. government's official web portal to all federal, state and local government web resources and services.